TimeCDT,TemperatureF,Dew PointF,Humidity,Sea Level PressureIn,VisibilityMPH,Wind Direction,Wind SpeedMPH,Gust SpeedMPH,PrecipitationIn,Events,Conditions,WindDirDegrees,DateUTC
1:55 AM,67.1,57.4,71,29.93,10.0,SSE,6.9,-,N/A,,Clear,160,2013-05-09 06:55:00
2:35 AM,68.0,57.2,68,29.93,10.0,South,9.2,-,N/A,,Clear,170,2013-05-09 07:35:00
2:55 AM,68.0,58.1,71,29.93,10.0,South,9.2,16.1,N/A,,Clear,180,2013-05-09 07:55:00
3:15 AM,67.1,59.0,75,29.92,10.0,South,11.5,-,N/A,,Clear,170,2013-05-09 08:15:00
4:55 AM,66.2,60.4,82,29.92,10.0,South,6.9,-,N/A,,Mostly Cloudy,170,2013-05-09 09:55:00
6:35 AM,66.9,61.7,83,29.94,10.0,South,8.1,-,N/A,,Overcast,170,2013-05-09 11:35:00
6:55 AM,67.1,61.9,83,29.94,10.0,South,6.9,-,N/A,,Overcast,170,2013-05-09 11:55:00
7:15 AM,67.3,62.2,84,29.95,10.0,SSE,6.9,-,N/A,,Overcast,160,2013-05-09 12:15:00
8:15 AM,68.0,63.0,84,29.96,10.0,South,8.1,-,N/A,,Scattered Clouds,170,2013-05-09 13:15:00
9:55 AM,69.8,64.6,83,29.98,10.0,South,8.1,-,N/A,,Overcast,180,2013-05-09 14:55:00
10:15 AM,70.0,64.9,84,29.99,10.0,South,5.8,-,N/A,,Mostly Cloudy,180,2013-05-09 15:15:00
10:35 AM,70.0,64.9,84,30.00,10.0,South,9.2,-,N/A,,Overcast,190,2013-05-09 15:35:00
10:55 AM,69.3,65.5,88,29.98,7.0,South,8.1,-,N/A,Rain,Rain,170,2013-05-09 15:55:00
11:15 AM,69.4,66.0,89,29.98,10.0,SSE,8.1,-,N/A,Rain,Light Rain,150,2013-05-09 16:15:00
11:35 AM,69.8,66.2,88,29.99,10.0,South,9.2,-,N/A,,Light Drizzle,170,2013-05-09 16:35:00
11:55 AM,69.8,66.2,88,29.96,7.0,SSE,11.5,-,N/A,Thunderstorm,Mostly Cloudy,150,2013-05-09 16:55:00
12:15 PM,69.8,66.2,88,29.98,7.0,South,4.6,10.4,N/A,,Mostly Cloudy,180,2013-05-09 17:15:00
12:35 PM,70.2,66.2,87,29.97,7.0,South,5.8,-,N/A,Thunderstorm,Overcast,170,2013-05-09 17:35:00
12:55 PM,70.0,66.4,88,29.97,7.0,SSE,4.6,-,N/A,Rain-Thunderstorm,Light Thunderstorms and Rain,160,2013-05-09 17:55:00
1:15 PM,69.8,66.9,91,29.98,5.0,South,8.1,-,0.01,Rain-Thunderstorm,Light Thunderstorms and Rain,190,2013-05-09 18:15:00
1:35 PM,69.1,67.1,93,29.99,5.0,SSW,4.6,-,0.02,Rain-Thunderstorm,Rain,200,2013-05-09 18:35:00
1:55 PM,68.9,67.3,95,30.00,4.0,Calm,Calm,-,0.05,Rain-Thunderstorm,Thunderstorms and Rain,0,2013-05-09 18:55:00
2:15 PM,68.9,67.5,95,30.01,3.0,SSW,4.6,-,0.03,Rain-Thunderstorm,Light Thunderstorms and Rain,200,2013-05-09 19:15:00
2:35 PM,68.5,67.5,96,30.00,3.0,SW,4.6,-,0.06,Rain-Thunderstorm,Thunderstorms and Rain,230,2013-05-09 19:35:00
2:55 PM,68.4,67.3,96,30.01,3.0,West,5.8,-,0.07,Rain-Thunderstorm,Light Thunderstorms and Rain,260,2013-05-09 19:55:00
3:15 PM,68.0,65.7,92,29.99,7.0,West,6.9,-,N/A,Rain-Thunderstorm,Light Thunderstorms and Rain,280,2013-05-09 20:15:00
3:35 PM,67.1,64.6,92,29.98,7.0,West,5.8,-,0.01,Rain,Light Rain,270,2013-05-09 20:35:00
3:55 PM,66.4,64.4,93,29.94,4.0,East,4.6,-,0.04,Rain,Heavy Rain,90,2013-05-09 20:55:00
4:15 PM,65.7,63.7,93,29.87,4.0,ESE,13.8,20.7,0.07,Rain,Rain,120,2013-05-09 21:15:00
4:35 PM,66.4,62.8,88,29.87,10.0,East,6.9,-,0.07,,Mostly Cloudy,80,2013-05-09 21:35:00
4:55 PM,66.9,63.9,90,29.87,10.0,East,10.4,-,0.07,,Clear,90,2013-05-09 21:55:00
5:15 PM,67.5,63.1,86,29.87,10.0,East,6.9,-,N/A,,Clear,80,2013-05-09 22:15:00
5:35 PM,67.5,63.3,87,29.87,7.0,Calm,Calm,-,N/A,,Clear,0,2013-05-09 22:35:00
5:55 PM,68.0,63.9,87,29.89,10.0,West,4.6,-,N/A,,Clear,270,2013-05-09 22:55:00
6:15 PM,67.3,63.9,89,29.89,10.0,Calm,Calm,-,N/A,,Scattered Clouds,0,2013-05-09 23:15:00
6:35 PM,67.3,64.4,90,29.88,10.0,Calm,Calm,-,N/A,,Mostly Cloudy,0,2013-05-09 23:35:00
6:55 PM,67.3,64.4,90,29.88,10.0,Calm,Calm,-,N/A,,Clear,0,2013-05-09 23:55:00
7:15 PM,67.5,64.8,91,29.90,10.0,Calm,Calm,-,N/A,,Mostly Cloudy,0,2013-05-10 00:15:00
7:35 PM,68.0,64.6,89,29.90,10.0,Calm,Calm,-,N/A,,Overcast,0,2013-05-10 00:35:00
7:55 PM,66.6,64.8,94,29.89,10.0,Calm,Calm,-,N/A,,Scattered Clouds,0,2013-05-10 00:55:00
8:15 PM,65.8,64.6,96,29.89,7.0,Calm,Calm,-,N/A,,Scattered Clouds,0,2013-05-10 01:15:00
8:35 PM,65.7,64.6,96,29.89,7.0,Calm,Calm,-,N/A,,Clear,0,2013-05-10 01:35:00
8:55 PM,65.7,64.4,96,29.88,10.0,ESE,3.5,-,N/A,,Scattered Clouds,110,2013-05-10 01:55:00
9:15 PM,65.3,64.0,96,29.89,7.0,Calm,Calm,-,N/A,,Scattered Clouds,0,2013-05-10 02:15:00
9:35 PM,64.6,63.9,98,29.90,5.0,Calm,Calm,-,N/A,,Clear,0,2013-05-10 02:35:00
9:55 PM,64.4,63.9,98,29.90,5.0,Calm,Calm,-,N/A,,Clear,0,2013-05-10 02:55:00
10:15 PM,64.6,63.9,98,29.92,5.0,Calm,Calm,-,N/A,,Mostly Cloudy,0,2013-05-10 03:15:00
10:35 PM,63.9,63.3,98,29.92,4.0,Calm,Calm,-,N/A,,Scattered Clouds,0,2013-05-10 03:35:00
10:55 PM,63.5,62.8,97,29.93,3.0,Calm,Calm,-,N/A,,Mostly Cloudy,0,2013-05-10 03:55:00
11:15 PM,64.4,64.4,100,29.94,4.0,Calm,Calm,-,N/A,,Mostly Cloudy,0,2013-05-10 04:15:00
11:35 PM,64.4,64.4,100,29.94,5.0,Calm,Calm,-,N/A,,Overcast,0,2013-05-10 04:35:00
11:55 PM,65.3,64.8,98,29.94,4.0,Calm,Calm,-,N/A,,Overcast,0,2013-05-10 04:55:00